This is the latest recevied weather packets stored in our database for station/object K3HM. If no packets are shown the sender has not sent any weather packets the latest 10 day(s).
| Time | Temp. | Humidity | Pressure | Rain* | Wind** | Luminosity | Snow |
|---|---|---|---|---|---|---|---|
| 1777727027 | 3.33° C | 84% | 1014.7 hPa | 0 mm | - | 298 W/m² | - |
| 1777726723 | 3.89° C | 85% | 1014.9 hPa | 0 mm | - | 222 W/m² | - |
| 1777726421 | 2.78° C | 86% | 1014.9 hPa | 0 mm | - | 178 W/m² | - |
| 1777726117 | 2.78° C | 86% | 1014.9 hPa | 0 mm | - | 156 W/m² | - |
| 1777725814 | 2.78° C | 88% | 1014.7 hPa | 0 mm | - | 175 W/m² | - |
| 1777725512 | 2.22° C | 89% | 1014.9 hPa | 0 mm | - | 168 W/m² | - |
| 1777725209 | 2.22° C | 90% | 1014.8 hPa | 0 mm | - | 135 W/m² | - |
| 1777724907 | 2.22° C | 90% | 1014.9 hPa | 0 mm | - | 80 W/m² | - |
| 1777724602 | 2.22° C | 91% | 1014.8 hPa | 0 mm | - | 72 W/m² | - |
| 1777724301 | 2.22° C | 91% | 1015 hPa | 0 mm | - | 43 W/m² | - |
| 1777723998 | 2.22° C | 90% | 1014.9 hPa | 0 mm | - | 46 W/m² | - |
| 1777723695 | 2.22° C | 90% | 1014.9 hPa | 0 mm | - | 57 W/m² | - |
| 1777723391 | 1.67° C | 90% | 1014.7 hPa | 0 mm | - | 67 W/m² | - |
| 1777723089 | 1.67° C | 92% | 1014.8 hPa | 0 mm | - | 57 W/m² | - |
| 1777722786 | 1.67° C | 94% | 1014.8 hPa | 0 mm | - | 59 W/m² | - |
| 1777722482 | 1.11° C | 96% | 1015.3 hPa | 0 mm | - | 42 W/m² | - |
| 1777722179 | 1.11° C | 97% | 1015.3 hPa | 0 mm | - | 36 W/m² | - |
| 1777721876 | 1.11° C | 97% | 1015.6 hPa | 0 mm | - | 27 W/m² | - |
| 1777721574 | 1.11° C | 97% | 1015.5 hPa | 0 mm | - | 28 W/m² | - |
| 1777721272 | 0.56° C | 97% | 1015.5 hPa | 0 mm | - | 27 W/m² | - |
| 1777720969 | 0.56° C | 98% | 1015.5 hPa | 0 mm | - | 24 W/m² | - |
| 1777720666 | 0.56° C | 98% | 1015.5 hPa | 0 mm | - | 27 W/m² | - |
| 1777720363 | 0.56° C | 98% | 1015.4 hPa | 0 mm | - | 37 W/m² | - |
| 1777720061 | 0.56° C | 98% | 1015.1 hPa | 0 mm | - | 36 W/m² | - |
| 1777719758 | 0° C | 98% | 1015.1 hPa | 0 mm | - | 32 W/m² | - |
* Rain latest hour (hover to see other rain measurements)
** Current wind speed in m/s (hover to see current wind gust speed)